, AK

(GMT )
Valdez Airport

Weather History for PAVD - August, 2013

Change the Weather History Date:

Saturday, August 24, 2013

  Actual Average Record
Temperature  
Mean Temperature 58 °F -  
Max Temperature 69 °F 60 °F 75 °F (1978)
Min Temperature 46 °F 45 °F 36 °F (1965)
Degree Days  
Heating Degree Days 8    
Growing Degree Days 8 (Base 50)    
Moisture  
Dew Point 43 °F    
Average Humidity 62    
Maximum Humidity 94    
Minimum Humidity 33    
Precipitation  
Precipitation 0.00 in - - ()
Sea Level Pressure  
Sea Level Pressure 29.56 in    
Wind  
Wind Speed 6 mph (NE)    
Max Wind Speed 23 mph    
Max Gust Speed 43 mph    
Visibility 10 miles    
Events Fog    
Averages and records for this station are not official NWS values.
T = Trace of Precipitation, MM = Missing Value Source: NWS Daily Summary

Daily Weather History Graph

Daily Weather History Graph

Search for Another Location

Airport or City:

Trip Planner

Search our weather history database for the weather conditions in past years. The results will help you decide how hot, cold, wet, or windy it might be!

Date:

Astronomy

Aug. 24, 2013 Rise Set
Actual Time 6:17 AM AKDT 9:14 PM AKDT
Civil Twilight 5:28 AM AKDT 10:04 PM AKDT
Nautical Twilight 4:18 AM AKDT 11:12 PM AKDT
Astronomical Twilight 2:19 AM AKDT 1:17 AM AKDT
Moon 9:41 PM AKDT (8/24) 11:55 AM AKDT (8/24)
Length of Visible Light 16h 35m
Length of Day
14h 56m
Waning Gibbous, 83% of the Moon is Illuminated
Aug 24
Waning Gibbous
Aug 28
Last Quarter
Sep 5
New
Sep 12
First Quarter
Sep 19
Full

Hourly Weather History & Observations

Time (AKDT) Temp. Windchill Dew Point Humidity Pressure Visibility Wind Dir Wind Speed Gust Speed Precip Events Conditions
12:16 AM 50.0 °F - 46.4 °F 87% 29.52 in 10.0 mi Calm Calm - N/A   Mostly Cloudy
12:36 AM 48.2 °F - 44.6 °F 87% 29.52 in 10.0 mi NE 4.6 mph - N/A   Overcast
12:56 AM 50.0 °F - 46.4 °F 87% 29.52 in 10.0 mi ENE 3.5 mph - N/A   Partly Cloudy
1:16 AM 50.0 °F - 46.4 °F 87% 29.52 in 10.0 mi ENE 3.5 mph - N/A   Partly Cloudy
1:36 AM 48.2 °F - 44.6 °F 87% 29.51 in 10.0 mi East 3.5 mph - N/A   Partly Cloudy
1:56 AM 48.2 °F - 46.4 °F 93% 29.51 in 10.0 mi Calm Calm - N/A   Clear
2:16 AM 48.2 °F - 46.4 °F 93% 29.51 in 10.0 mi South 3.5 mph - N/A   Scattered Clouds
2:36 AM 50.0 °F - 46.4 °F 87% 29.51 in 10.0 mi Calm Calm - N/A   Scattered Clouds
2:56 AM 50.0 °F - 46.4 °F 87% 29.51 in 10.0 mi Calm Calm - N/A   Mostly Cloudy
3:16 AM 48.2 °F - 46.4 °F 93% 29.51 in 10.0 mi Calm Calm - N/A   Partly Cloudy
3:36 AM 48.2 °F - 44.6 °F 87% 29.51 in 10.0 mi East 3.5 mph - N/A   Scattered Clouds
3:56 AM 48.2 °F - 46.4 °F 93% 29.51 in 10.0 mi Calm Calm - N/A   Partly Cloudy
4:16 AM 48.2 °F - 46.4 °F 93% 29.51 in 10.0 mi Calm Calm - N/A   Clear
4:36 AM 48.2 °F - 46.4 °F 93% 29.51 in 10.0 mi Calm Calm - N/A   Clear
4:56 AM 48.2 °F - 44.6 °F 87% 29.51 in 10.0 mi Calm Calm - N/A   Partly Cloudy
5:16 AM 48.2 °F - 44.6 °F 87% 29.51 in 10.0 mi Calm Calm - N/A   Scattered Clouds
5:36 AM 48.2 °F - 44.6 °F 87% 29.51 in 10.0 mi Calm Calm - N/A   Mostly Cloudy
5:56 AM 46.4 °F 45.2 °F 44.6 °F 93% 29.52 in 10.0 mi ENE 3.5 mph - N/A   Partly Cloudy
6:16 AM 48.2 °F - 46.4 °F 93% 29.52 in 10.0 mi Calm Calm - N/A   Mostly Cloudy
6:36 AM 48.2 °F - 46.4 °F 93% 29.52 in 10.0 mi Calm Calm - N/A   Mostly Cloudy
6:56 AM 46.4 °F 44.3 °F 44.6 °F 93% 29.52 in 10.0 mi WSW 4.6 mph - N/A   Mostly Cloudy
7:02 AM 46.4 °F 45.2 °F 44.6 °F 93% 29.53 in 0.2 mi SSW 3.5 mph - N/A Fog Fog
7:16 AM 46.4 °F - 42.8 °F 87% 29.53 in 0.2 mi Calm Calm - N/A   Mostly Cloudy
7:27 AM 48.2 °F - 44.6 °F 87% 29.53 in 0.2 mi Calm Calm - N/A Fog Fog
7:36 AM 46.4 °F - 44.6 °F 93% 29.53 in 0.2 mi Calm Calm - N/A   Mostly Cloudy
7:56 AM 48.2 °F - 44.6 °F 87% 29.54 in 10.0 mi Calm Calm - N/A   Mostly Cloudy
8:16 AM 48.2 °F - 46.4 °F 93% 29.54 in 10.0 mi Calm Calm - N/A   Mostly Cloudy
8:36 AM 48.2 °F - 46.4 °F 93% 29.54 in 10.0 mi Calm Calm - N/A   Mostly Cloudy
8:56 AM 48.2 °F - 46.4 °F 93% 29.54 in 10.0 mi South 5.8 mph - N/A   Mostly Cloudy
9:16 AM 50.0 °F - 48.2 °F 94% 29.54 in 10.0 mi West 5.8 mph - N/A   Mostly Cloudy
9:36 AM 50.0 °F - 48.2 °F 94% 29.54 in 10.0 mi Calm Calm - N/A   Mostly Cloudy
9:56 AM 53.6 °F - 48.2 °F 82% 29.54 in 10.0 mi West 4.6 mph - N/A   Mostly Cloudy
10:16 AM 57.2 °F - 48.2 °F 72% 29.54 in 10.0 mi WNW 3.5 mph - N/A   Mostly Cloudy
10:36 AM 57.2 °F - 48.2 °F 72% 29.54 in 10.0 mi West 6.9 mph - N/A   Mostly Cloudy
10:56 AM 60.8 °F - 48.2 °F 63% 29.54 in 10.0 mi West 4.6 mph - N/A   Scattered Clouds
11:16 AM 60.8 °F - 50.0 °F 68% 29.55 in 10.0 mi NW 4.6 mph - N/A   Scattered Clouds
11:36 AM 66.2 °F - 44.6 °F 46% 29.54 in 10.0 mi East 15.0 mph 29.9 mph N/A   Scattered Clouds
11:56 AM 66.2 °F - 44.6 °F 46% 29.54 in 10.0 mi East 15.0 mph 21.9 mph N/A   Scattered Clouds
12:16 PM 68.0 °F - 42.8 °F 40% 29.54 in 10.0 mi East 19.6 mph 29.9 mph N/A   Scattered Clouds
12:36 PM 66.2 °F - 42.8 °F 43% 29.55 in 10.0 mi East 9.2 mph 32.2 mph N/A   Scattered Clouds
12:56 PM 66.2 °F - 42.8 °F 43% 29.55 in 10.0 mi East 21.9 mph 31.1 mph N/A   Mostly Cloudy
1:16 PM 66.2 °F - 42.8 °F 43% 29.55 in 10.0 mi East 17.3 mph 24.2 mph N/A   Mostly Cloudy
1:36 PM 66.2 °F - 42.8 °F 43% 29.56 in 10.0 mi East 13.8 mph 28.8 mph N/A   Mostly Cloudy
1:56 PM 66.2 °F - 42.8 °F 43% 29.56 in 10.0 mi ENE 17.3 mph 25.3 mph N/A   Mostly Cloudy
2:16 PM 66.2 °F - 41.0 °F 40% 29.56 in 10.0 mi NNE 5.8 mph - N/A   Mostly Cloudy
2:36 PM 66.2 °F - 42.8 °F 43% 29.56 in 10.0 mi ENE 6.9 mph 20.7 mph N/A   Mostly Cloudy
2:56 PM 68.0 °F - 42.8 °F 40% 29.57 in 10.0 mi East 11.5 mph 29.9 mph N/A   Mostly Cloudy
3:16 PM 68.0 °F - 42.8 °F 40% 29.57 in 10.0 mi ESE 12.7 mph 29.9 mph N/A   Mostly Cloudy
3:36 PM 66.2 °F - 42.8 °F 43% 29.57 in 10.0 mi East 15.0 mph 27.6 mph N/A   Mostly Cloudy
3:56 PM 69.8 °F - 42.8 °F 38% 29.58 in 10.0 mi ESE 12.7 mph 23.0 mph N/A   Mostly Cloudy
4:16 PM 69.8 °F - 41.0 °F 35% 29.58 in 10.0 mi East 18.4 mph 24.2 mph N/A   Mostly Cloudy
4:36 PM 68.0 °F - 39.2 °F 35% 29.58 in 10.0 mi East 15.0 mph 21.9 mph N/A   Mostly Cloudy
4:56 PM 69.8 °F - 41.0 °F 35% 29.58 in 10.0 mi East 12.7 mph 23.0 mph N/A   Mostly Cloudy
5:16 PM 68.0 °F - 42.8 °F 40% 29.59 in 10.0 mi NNE 11.5 mph 18.4 mph N/A   Mostly Cloudy
5:36 PM 66.2 °F - 39.2 °F 37% 29.59 in 10.0 mi East 16.1 mph 23.0 mph N/A   Mostly Cloudy
5:56 PM 66.2 °F - 39.2 °F 37% 29.60 in 10.0 mi NNE 8.1 mph - N/A   Mostly Cloudy
6:16 PM 68.0 °F - 39.2 °F 35% 29.59 in 10.0 mi ENE 13.8 mph 18.4 mph N/A   Mostly Cloudy
6:36 PM 68.0 °F - 39.2 °F 35% 29.59 in 10.0 mi NE 13.8 mph 18.4 mph N/A   Mostly Cloudy
6:56 PM 68.0 °F - 39.2 °F 35% 29.59 in 10.0 mi North 16.1 mph 24.2 mph N/A   Mostly Cloudy
7:16 PM 68.0 °F - 37.4 °F 33% 29.59 in 10.0 mi North 17.3 mph 26.5 mph N/A   Mostly Cloudy
7:36 PM 66.2 °F - 37.4 °F 35% 29.59 in 10.0 mi NNE 15.0 mph 25.3 mph N/A   Mostly Cloudy
7:56 PM 66.2 °F - 39.2 °F 37% 29.59 in 10.0 mi NNE 20.7 mph 35.7 mph N/A   Mostly Cloudy
8:16 PM 66.2 °F - 37.4 °F 35% 29.60 in 10.0 mi NNE 16.1 mph 38.0 mph N/A   Mostly Cloudy
8:36 PM 66.2 °F - 37.4 °F 35% 29.59 in 10.0 mi North 23.0 mph 39.1 mph N/A   Mostly Cloudy
8:56 PM 66.2 °F - 37.4 °F 35% 29.60 in 10.0 mi North 18.4 mph 35.7 mph N/A   Mostly Cloudy
9:16 PM 66.2 °F - 37.4 °F 35% 29.60 in 10.0 mi North 21.9 mph 42.6 mph N/A   Mostly Cloudy
9:36 PM 64.4 °F - 37.4 °F 37% 29.61 in 10.0 mi North 20.7 mph 31.1 mph N/A   Mostly Cloudy
9:56 PM 64.4 °F - 37.4 °F 37% 29.63 in 10.0 mi NE 8.1 mph - N/A   Scattered Clouds
10:16 PM 64.4 °F - 37.4 °F 37% 29.63 in 10.0 mi NE 16.1 mph 27.6 mph N/A   Clear
10:36 PM 64.4 °F - 35.6 °F 34% 29.63 in 10.0 mi East 20.7 mph 29.9 mph N/A   Clear
10:56 PM 64.4 °F - 35.6 °F 34% 29.65 in 10.0 mi NNE 5.8 mph 17.3 mph N/A   Clear
11:16 PM 64.4 °F - 35.6 °F 34% 29.65 in 10.0 mi East 3.5 mph 24.2 mph N/A   Clear
11:36 PM 64.4 °F - 35.6 °F 34% 29.64 in 10.0 mi NNE 13.8 mph 28.8 mph N/A   Clear
11:56 PM 64.4 °F - 35.6 °F 34% 29.64 in 10.0 mi NE 9.2 mph 20.7 mph N/A   Clear